User: anonymous   Login
Location: Unspecified
(0.0000°N, 0.0000°E)
Time: 00:09:14
(UTC+01:00)
Language:

Cosmos 1758 - Orbit

View from above orbital plane
View from above orbital plane
View from above satellite
View from above satellite

Ground track
Ground track

The orbit data is extracted from the following two-line orbital elements,

1 16791U 86046A   17324.83175229  .00000604  00000-0  40948-4 0  9991
2 16791  82.4717 239.4337 0014881 277.7393  82.2144 15.04565400709238
Epoch (UTC): 20 November 2017 19:57:43
Eccentricity: 0.0014881
inclination: 82.4717°
perigee height: 542 km
apogee height: 563 km
right ascension of ascending node: 239.4337°
argument of perigee: 277.7393°
revolutions per day: 15.04565400
mean anomaly at epoch: 82.2144°
orbit number at epoch: 70923

The dashed part of the orbit path shows where the satellite is in the earth's shadow,  

DLR